Volver al catálogo

GEESAT 5-05

ActivoComunicacionesLEO
NORAD 65554·PAYLOAD·🇨🇳 China

Lanzado Sep 8, 2025 desde Yellow Sea Launch Area

Loading…

Próximos Pases (próximas 24 horas)

TLE

ActualizadoSource: Space-Track

Época: Sep 13, 2026, 15:21 UTC

1 65554U 25201E   26256.63968320  .00001194  00000-0  16741-3 0  9990
2 65554  49.9835 348.6765 0011151 258.9758 100.9926 14.84397633 54933

Sigue GEESAT 5-05 en tiempo real con AllMySat

Download on the App Store